Temp
73 79 77 75 61 59 56 65 78 80 84 90 88 88 82 84 82 69 89 88 83 79 79 81 80 80 80 80 79 79 79 79 79 79 79 79 79 79 79 79 80 80 81 81 81 81 80 80 80
75 82 77 70 56 49 57 74 75 81 86 89 90 90 86 81 91 89 83 86 83 79 78 79 80 80 80 80 79 79 79 79 79 79 79 79 79 79 79 79 80 80 81 81 81 81 80 80 80
75 81 65 61 55 54 57 75 78 88 90 88 86 93 89 84 92 90 88 86 84 79 79 79 80 80 80 80 79 79 79 79 79 79 79 79 79 79 79 79 80 80 81 81 81 80 80 80 80
75 70 68 56 55 64 70 77 83 86 88 91 88 85 92 95 93 93 90 87 83 81 79 79 79 80 80 80 79 79 79 79 79 79 79 79 79 78 78 79 79 80 81 81 80 80 79 79 79
72 66 54 52 59 68 77 82 83 84 85 88 87 84 83 92 97 93 90 89 84 82 77 78 79 79 80 80 79 79 79 78 79 79 79 79 78 78 78 79 79 80 80 80 80 79 79 79 79
63 64 50 52 60 70 77 83 83 83 86 84 85 84 82 93 93 93 92 89 88 80 78 78 79 79 79 79 79 79 78 78 78 78 78 78 78 78 78 79 79 79 79 79 79 79 78 78 78
59 56 52 57 62 67 75 83 80 81 81 83 90 81 80 89 94 94 93 92 86 82 79 78 78 79 79 79 78 78 78 78 78 78 78 78 78 78 78 78 79 79 78 78 78 78 78 77 77
65 59 55 58 63 63 78 83 80 82 85 91 92 80 73 85 94 93 92 86 83 82 79 76 76 77 77 78 79 78 78 78 78 78 78 77 78 78 78 77 78 78 78 78 78 78 77 77 77
73 53 48 57 61 67 76 75 83 88 84 87 88 87 88 94 94 90 87 83 83 82 79 78 76 76 76 77 79 79 79 79 78 78 78 76 74 75 77 77 78 78 78 78 77 77 77 77 77
63 57 58 67 71 69 73 72 76 78 78 80 84 90 93 93 89 86 86 86 82 80 79 80 78 77 77 82 77 78 78 77 76 75 75 73 72 72 77 77 78 78 78 77 77 77 77 77 71
61 60 67 72 76 77 76 74 78 74 70 76 77 82 86 85 86 86 86 88 88 82 82 82 81 79 78 80 75 77 76 75 75 75 74 72 75 74 74 71 75 72 76 72 74 73 72 71 71
60 69 71 73 78 75 72 76 75 75 74 81 82 83 84 81 77 82 85 84 88 85 84 83 83 81 79 77 75 76 77 75 74 75 74 73 70 70 71 70 70 70 70 69 69 70 71 70 73
64 68 73 75 75 73 76 72 72 73 81 84 84 84 80 79 79 82 86 87 84 82 84 84 83 81 82 78 78 78 76 76 75 74 74 73 71 71 73 72 73 73 71 71 69 70 72 73 73
67 70 71 72 70 71 70 71 73 75 80 80 82 80 80 79 78 79 82 84 80 80 75 75 77 76 77 78 80 80 79 79 77 76 75 75 73 73 74 74 74 73 74 73 73 73 74 75 75
70 65 68 72 70 68 71 67 68 75 78 76 77 79 81 81 80 79 80 79 81 81 78 77 75 75 75 82 79 80 81 81 79 79 77 78 76 74 75 74 74 73 75 75 75 75 75 73 75
64 62 56 65 70 71 69 60 71 76 76 74 78 79 79 78 80 79 80 79 79 78 75 78 81 76 76 82 80 82 80 77 76 76 79 79 77 76 74 74 75 77 75 75 75 76 74 74 74
58 51 53 61 70 70 68 62 71 77 77 72 77 78 79 76 77 77 79 78 79 76 77 76 77 75 75 75 77 79 74 73 73 71 71 71 71 70 71 72 72 72 73 75 76 76 75 73 73
49 51 56 58 67 70 66 66 70 74 74 72 75 75 75 76 76 80 80 80 77 77 76 77 75 72 68 71 72 72 71 70 70 68 69 69 68 68 66 65 65 69 69 69 68 67 69 70 71
60 58 57 63 70 67 66 67 68 72 72 70 71 72 73 75 79 78 81 82 75 75 73 74 72 67 66 71 65 70 69 68 68 67 69 67 67 66 67 67 66 68 67 67 64 66 67 66 70
61 57 57 64 71 66 63 62 68 71 70 72 73 73 72 72 75 77 76 76 73 74 73 73 73 71 70 70 69 70 69 67 67 67 68 68 68 67 66 66 66 65 67 68 68 66 66 67 70
59 57 58 58 66 66 62 56 62 70 72 74 75 75 74 71 73 75 75 75 73 74 73 73 71 70 70 69 67 66 67 67 65 66 66 67 68 68 68 67 66 68 66 68 69 68 66 65 68
55 66 65 63 61 48 61 43 57 64 69 73 74 73 71 73 73 72 73 72 75 76 74 72 71 70 71 70 67 66 65 64 66 68 67 68 69 69 69 69 69 67 67 66 67 69 67 68 66
59 69 66 64 57 51 56 46 52 62 64 69 70 73 72 72 75 72 75 76 76 75 72 70 68 68 70 71 71 69 70 71 66 67 64 64 65 68 70 67 65 63 65 67 68 69 68 67 67
70 66 64 62 53 42 50 49 49 56 64 68 72 72 74 73 72 74 74 75 73 73 73 72 70 68 67 67 68 68 69 67 66 66 65 65 66 67 66 67 64 64 65 66 67 68 69 69 68
65 52 40 41 42 40 55 52 52 63 70 73 71 69 71 70 70 71 71 71 71 71 71 71 71 69 69 66 66 65 62 63 64 64 68 66 66 66 66 66 64 65 66 69 66 64 66 67 66
55 51 42 33 34 41 58 49 56 70 73 74 74 70 71 69 68 68 69 68 70 70 70 71 69 68 68 68 68 66 66 66 67 68 64 68 69 68 68 66 68 69 64 64 66 64 66 68 65
56 52 58 49 50 41 47 54 66 71 71 72 70 69 66 67 68 69 70 68 68 69 69 68 67 68 69 70 70 69 67 67 68 69 68 67 67 65 68 69 68 66 64 65 66 67 67 66 67
62 64 51 48 35 32 44 49 47 57 60 66 66 64 65 67 68 68 68 69 69 70 71 70 68 67 67 68 67 69 69 69 68 65 64 64 62 60 60 59 63 61 67 68 67 64 67 66 65
56 55 55 52 47 35 36 39 56 52 57 58 57 56 55 59 65 67 68 69 71 70 70 68 68 68 68 65 66 64 66 65 65 62 62 63 60 60 62 64 65 66 65 66 67 67 68 65 64
57 55 53 37 40 44 43 38 57 54 59 59 56 60 60 65 64 66 66 68 70 69 69 67 66 68 66 67 65 62 65 62 62 63 64 64 64 64 65 66 67 67 69 68 67 66 67 64 64
MSLP
1010.18 1009.89 1010.11 1010.10 1010.36 1009.32 1007.81 1005.08 1003.01 1001.17 1000.04 999.14 999.12 999.36 1000.79 1000.99 1001.84 1003.68 1002.86 1004.75 1005.96 1006.84 1007.75 1007.92 1008.11 1008.67 1009.16 1009.58 1010.09 1010.43 1010.67 1011.01 1011.42 1011.86 1012.29 1012.62 1012.93 1013.13 1013.37 1013.61 1013.88 1014.20 1014.57 1014.84 1015.04 1015.25 1015.45 1015.54 1015.71
1010.20 1009.99 1009.81 1009.99 1010.04 1009.25 1007.07 1004.07 1002.06 1000.98 999.58 998.70 998.58 999.23 1000.34 1001.57 1001.44 1003.32 1004.48 1005.21 1005.77 1006.80 1007.57 1007.89 1008.14 1008.60 1009.15 1009.55 1010.02 1010.44 1010.77 1011.18 1011.60 1012.01 1012.44 1012.76 1013.12 1013.45 1013.67 1013.89 1014.11 1014.37 1014.67 1014.97 1015.22 1015.39 1015.55 1015.75 1015.85
1010.50 1010.28 1010.38 1009.89 1009.43 1008.41 1006.29 1002.85 1002.05 1000.85 999.40 999.07 998.89 998.86 999.94 1001.52 1001.87 1002.81 1003.86 1005.15 1005.98 1007.10 1007.50 1007.78 1008.04 1008.52 1009.10 1009.60 1010.12 1010.47 1010.80 1011.13 1011.55 1012.07 1012.59 1012.99 1013.26 1013.53 1013.80 1014.00 1014.17 1014.40 1014.69 1014.98 1015.29 1015.50 1015.78 1015.92 1016.10
1010.40 1010.22 1010.05 1009.14 1008.54 1006.71 1005.09 1002.76 1001.54 1000.57 999.59 999.06 999.01 999.38 1000.04 1000.43 1001.13 1002.36 1004.27 1005.26 1006.06 1006.80 1007.31 1007.82 1008.05 1008.30 1008.87 1009.43 1010.05 1010.51 1010.90 1011.29 1011.67 1012.13 1012.55 1012.96 1013.31 1013.59 1013.87 1014.09 1014.31 1014.52 1014.75 1015.08 1015.41 1015.69 1015.89 1016.07 1016.24
1010.37 1010.15 1010.10 1009.26 1007.64 1006.42 1004.34 1002.86 1001.79 1001.07 999.85 999.38 999.48 999.91 1000.73 1000.95 1001.26 1002.53 1003.69 1004.50 1005.50 1006.54 1007.11 1007.64 1008.03 1008.10 1008.52 1009.17 1009.79 1010.26 1010.67 1011.14 1011.58 1012.02 1012.45 1012.75 1013.08 1013.49 1013.73 1013.96 1014.19 1014.48 1014.67 1014.91 1015.31 1015.65 1015.96 1016.07 1016.16
1010.44 1009.72 1009.88 1009.15 1007.38 1005.80 1003.93 1002.35 1001.69 1001.05 1000.18 999.33 999.64 1000.06 1000.76 1001.13 1001.55 1002.53 1003.26 1004.11 1004.98 1006.27 1006.95 1007.40 1007.74 1007.85 1008.07 1008.66 1009.36 1010.00 1010.46 1010.89 1011.31 1011.65 1012.03 1012.53 1012.99 1013.29 1013.52 1013.83 1014.19 1014.44 1014.76 1014.96 1015.20 1015.56 1015.89 1016.17 1016.21
1010.31 1010.04 1009.39 1008.46 1007.10 1005.48 1003.53 1001.75 1001.36 1000.68 1000.03 999.75 999.45 1000.29 1001.48 1001.50 1001.84 1002.25 1003.08 1003.97 1005.01 1005.85 1006.69 1007.20 1007.70 1007.94 1008.04 1008.35 1009.05 1009.89 1010.43 1010.93 1011.29 1011.59 1012.00 1012.39 1012.83 1013.31 1013.62 1013.81 1014.08 1014.33 1014.56 1014.91 1015.16 1015.40 1015.71 1015.93 1016.04
1009.30 1009.83 1009.17 1008.08 1006.88 1004.97 1003.00 1001.98 1001.07 1000.43 999.68 998.97 999.19 1000.29 1001.87 1001.70 1001.82 1002.22 1002.84 1004.14 1005.22 1005.91 1006.44 1007.15 1007.65 1008.10 1008.45 1008.68 1008.76 1009.41 1010.29 1010.75 1011.27 1011.66 1012.05 1012.55 1012.92 1013.22 1013.57 1013.84 1014.03 1014.20 1014.35 1014.58 1014.92 1015.13 1015.38 1015.71 1015.90
1008.77 1009.20 1008.72 1007.63 1006.54 1005.05 1003.08 1002.86 1001.45 1000.62 999.90 999.51 999.98 1000.31 1001.09 1001.44 1001.82 1002.23 1003.08 1004.49 1005.22 1005.87 1006.24 1007.05 1007.69 1008.17 1008.72 1009.16 1009.53 1009.67 1010.18 1010.94 1011.58 1012.13 1012.50 1012.90 1013.26 1013.51 1013.69 1013.89 1014.00 1014.13 1014.28 1014.39 1014.60 1014.91 1015.16 1015.54 1015.80
1008.48 1008.09 1007.41 1006.45 1005.61 1004.88 1003.74 1003.41 1002.45 1001.78 1001.20 1000.48 1000.39 1000.62 1001.22 1001.54 1001.96 1002.47 1002.98 1003.79 1004.83 1005.56 1006.20 1006.75 1007.73 1008.44 1008.92 1009.39 1010.08 1010.60 1010.91 1011.31 1011.91 1012.45 1012.83 1013.12 1013.38 1013.52 1013.74 1013.96 1014.02 1014.11 1014.29 1014.42 1014.47 1014.58 1014.76 1014.94 1015.23
1007.41 1006.75 1006.52 1005.60 1004.90 1004.29 1003.77 1003.12 1002.59 1002.58 1002.22 1001.76 1001.66 1001.32 1001.31 1002.02 1002.14 1002.54 1002.77 1002.81 1003.33 1004.39 1005.49 1006.32 1007.12 1008.30 1009.29 1009.60 1010.09 1010.48 1010.82 1011.17 1011.53 1011.94 1012.65 1013.17 1013.43 1013.56 1013.69 1013.93 1014.02 1014.28 1014.45 1014.66 1014.65 1014.75 1014.66 1014.59 1014.67
1007.07 1006.31 1005.97 1005.17 1004.27 1004.12 1003.96 1003.25 1002.75 1002.61 1002.50 1002.20 1001.91 1001.78 1001.69 1002.10 1003.00 1003.21 1002.48 1002.53 1002.97 1003.72 1004.45 1005.31 1006.07 1007.26 1008.70 1009.42 1010.29 1010.58 1010.88 1011.36 1011.78 1012.23 1012.38 1012.87 1013.46 1013.73 1013.68 1013.92 1014.20 1014.37 1014.36 1014.59 1014.58 1014.48 1014.44 1014.46 1014.33
1006.14 1005.85 1005.08 1004.52 1004.04 1003.56 1003.28 1003.09 1003.00 1002.71 1002.56 1002.21 1002.11 1002.18 1002.23 1002.41 1002.81 1002.83 1002.54 1002.07 1002.53 1003.83 1004.58 1004.45 1005.69 1006.70 1007.07 1008.37 1009.68 1010.18 1010.72 1011.00 1011.06 1011.53 1012.28 1012.62 1012.81 1013.15 1013.29 1013.56 1013.75 1014.11 1014.22 1014.15 1014.37 1014.39 1014.40 1014.43 1014.28
1005.34 1005.21 1004.47 1003.85 1003.48 1003.25 1003.25 1002.95 1002.78 1002.40 1002.52 1002.66 1002.53 1002.62 1002.62 1002.46 1002.75 1002.87 1002.84 1002.35 1002.64 1003.59 1004.50 1005.57 1006.66 1006.91 1007.46 1007.91 1008.94 1010.03 1010.18 1010.32 1010.84 1011.14 1011.54 1011.98 1012.52 1012.57 1012.87 1013.20 1013.39 1013.32 1013.75 1013.96 1013.92 1013.86 1013.91 1014.05 1013.97
1004.99 1004.91 1004.08 1003.27 1003.00 1002.99 1003.18 1002.60 1002.23 1002.41 1002.51 1002.54 1002.51 1002.54 1002.56 1002.56 1002.48 1002.99 1002.72 1002.63 1002.42 1003.34 1004.29 1005.23 1006.11 1006.59 1006.35 1007.67 1008.53 1009.72 1010.28 1010.00 1010.21 1010.75 1011.45 1011.84 1012.14 1012.24 1012.05 1012.55 1012.86 1012.99 1013.05 1013.39 1013.55 1013.49 1013.49 1013.69 1013.66
1004.73 1004.33 1003.76 1002.96 1002.63 1002.62 1003.19 1001.42 1002.20 1002.05 1002.09 1002.15 1002.03 1002.13 1002.22 1002.23 1002.24 1002.31 1002.61 1002.50 1002.28 1003.21 1004.10 1004.91 1004.97 1005.96 1006.23 1007.90 1007.89 1009.60 1009.48 1009.53 1009.72 1010.39 1010.71 1011.15 1011.41 1012.11 1011.65 1011.92 1012.10 1012.15 1012.60 1012.94 1013.34 1013.21 1013.29 1013.27 1013.42
1004.17 1003.86 1003.36 1002.73 1002.03 1002.32 1002.44 1001.46 1001.70 1001.58 1001.57 1001.54 1001.32 1001.51 1001.71 1001.85 1001.95 1001.79 1001.81 1001.91 1002.11 1002.87 1003.49 1004.63 1005.28 1005.52 1006.99 1007.09 1008.38 1009.16 1009.79 1010.15 1010.08 1010.63 1011.38 1011.63 1012.05 1012.63 1012.37 1012.71 1012.46 1012.29 1012.56 1012.96 1013.07 1013.03 1013.21 1013.46 1013.34
1004.13 1003.69 1003.27 1002.41 1001.70 1001.58 1001.44 1001.00 1001.29 1001.01 1001.01 1000.89 1000.73 1000.60 1000.87 1001.13 1001.25 1001.06 1001.00 1000.83 1001.52 1002.45 1003.02 1003.66 1004.83 1005.97 1006.55 1007.46 1007.56 1009.05 1010.52 1010.61 1010.51 1011.27 1011.71 1011.85 1011.91 1012.23 1012.22 1012.57 1012.73 1012.67 1012.98 1013.72 1013.45 1014.95 1014.16 1014.08 1013.94
1003.80 1003.38 1002.62 1001.56 1000.53 1000.88 1000.33 1000.49 1000.75 1000.56 1000.38 1000.48 1000.38 1000.42 1000.20 1000.23 1000.04 1000.09 1000.22 1000.21 1000.99 1001.97 1002.93 1003.77 1005.04 1005.99 1006.79 1007.89 1008.57 1008.87 1010.15 1011.22 1011.07 1011.47 1011.59 1011.43 1012.00 1012.15 1012.10 1012.22 1012.40 1013.27 1013.10 1013.39 1013.97 1015.21 1015.66 1015.01 1014.57
1003.35 1002.84 1001.80 1000.95 1000.09 999.81 999.64 999.77 999.97 1000.18 1000.14 999.94 999.83 999.75 999.74 999.89 999.75 999.79 999.79 1000.01 1000.99 1001.64 1002.92 1004.05 1004.99 1006.02 1006.62 1007.40 1007.52 1008.39 1008.81 1010.63 1011.74 1011.31 1010.34 1011.11 1010.96 1011.64 1011.75 1012.03 1012.14 1012.98 1013.36 1013.30 1013.07 1014.22 1015.07 1014.38 1013.60
1002.21 1001.93 1001.30 1000.88 999.92 999.30 999.61 1000.16 999.99 999.59 999.41 999.20 999.12 999.10 998.99 999.49 999.42 999.35 999.61 999.92 1001.05 1002.01 1002.77 1003.71 1004.92 1005.87 1006.19 1007.00 1008.03 1008.60 1009.77 1010.37 1010.37 1010.62 1010.20 1009.85 1008.71 1009.13 1009.87 1009.36 1009.88 1009.82 1010.97 1011.28 1012.47 1012.45 1012.76 1013.07 1012.79
1001.09 1000.89 1000.87 1000.63 1000.51 1000.40 999.83 1000.61 1000.12 999.69 999.19 998.92 998.84 998.97 999.27 999.35 999.13 999.28 999.73 1000.29 1001.13 1001.73 1002.55 1003.33 1004.01 1004.63 1005.39 1006.32 1007.18 1007.42 1007.78 1009.75 1008.30 1008.38 1008.60 1008.28 1008.70 1008.53 1009.53 1009.70 1009.71 1009.76 1010.49 1011.39 1011.66 1011.72 1011.21 1012.07 1012.25
1000.05 1000.34 1000.45 1000.48 1000.67 1000.60 1000.24 1000.70 999.81 999.46 999.16 998.75 998.93 998.99 999.23 999.54 999.78 1000.26 1000.47 1000.89 1001.55 1001.96 1003.06 1003.84 1004.59 1005.13 1005.14 1005.68 1006.02 1006.85 1007.42 1007.48 1007.78 1008.20 1008.31 1008.76 1008.99 1009.26 1009.63 1009.38 1009.67 1010.11 1010.64 1011.47 1012.02 1012.11 1011.61 1011.73 1012.15
1000.01 1000.35 1000.37 1000.61 1001.24 1001.48 1000.95 1000.93 1000.28 999.34 998.16 997.54 998.35 998.87 999.30 999.83 1000.31 1000.79 1001.05 1001.34 1001.60 1001.94 1002.16 1003.54 1004.34 1004.97 1005.67 1005.98 1006.02 1006.13 1006.29 1006.71 1007.09 1007.41 1007.67 1008.23 1008.40 1008.78 1009.09 1009.47 1009.71 1010.19 1010.39 1011.04 1011.32 1011.56 1011.33 1011.20 1011.66
999.51 1000.18 1000.80 1001.35 1001.70 1001.17 1001.34 1001.07 999.97 998.37 997.64 997.39 998.43 999.17 999.67 1000.50 1000.94 1001.34 1001.66 1002.03 1002.04 1002.21 1002.65 1002.93 1003.86 1004.59 1005.21 1005.84 1006.49 1006.93 1007.36 1007.31 1007.42 1007.55 1007.68 1007.74 1008.01 1008.21 1007.90 1008.39 1009.56 1009.86 1009.58 1009.87 1010.45 1012.02 1012.36 1012.03 1011.41
999.33 999.69 1000.38 1001.35 1001.94 1002.22 1001.43 1000.34 999.15 997.99 997.75 997.37 998.31 999.35 1000.11 1001.06 1001.66 1002.18 1002.71 1002.81 1002.68 1003.08 1003.53 1003.71 1003.98 1004.46 1004.97 1005.55 1006.02 1006.53 1006.81 1007.07 1007.06 1007.32 1007.53 1007.68 1007.60 1007.57 1007.74 1008.39 1008.39 1008.74 1009.52 1009.73 1009.91 1010.00 1009.65 1010.59 1010.32
998.64 999.27 1000.23 1001.42 1002.52 1003.34 1001.90 1000.07 999.28 998.01 998.53 998.91 999.22 1000.06 1000.92 1001.47 1002.14 1002.48 1003.17 1003.53 1003.72 1003.75 1004.04 1004.47 1004.55 1004.30 1005.05 1005.45 1005.65 1006.06 1006.40 1006.71 1006.38 1006.42 1006.66 1006.90 1007.49 1008.21 1008.13 1008.51 1008.53 1009.09 1006.61 1008.01 1008.98 1010.08 1010.01 1009.07 1009.02
998.51 999.38 1000.40 1001.72 1003.81 1004.42 1002.54 1001.91 1002.18 1000.99 1000.49 1000.17 1000.72 1001.23 1001.60 1001.90 1002.49 1003.11 1003.74 1004.05 1004.21 1004.17 1004.33 1004.47 1004.72 1005.07 1005.21 1005.31 1005.57 1005.74 1005.69 1005.86 1005.98 1006.06 1006.31 1006.64 1007.01 1006.75 1006.81 1006.25 1008.19 1007.78 1007.38 1008.24 1008.37 1008.88 1008.74 1008.99 1009.34
999.29 999.90 1000.19 1001.49 1003.13 1003.68 1003.69 1004.24 1003.22 1003.93 1002.64 1002.39 1002.41 1002.69 1003.32 1003.54 1003.16 1003.59 1004.04 1004.40 1004.67 1004.59 1004.67 1005.05 1005.34 1005.63 1005.82 1005.90 1005.92 1006.31 1006.53 1006.44 1006.56 1006.60 1006.68 1007.04 1007.16 1006.98 1006.66 1006.28 1008.10 1008.27 1008.29 1007.22 1007.58 1008.27 1008.36 1008.61 1009.63
999.64 999.32 1000.37 1001.83 1002.84 1003.47 1004.05 1005.09 1004.92 1004.56 1004.30 1003.84 1003.82 1003.31 1003.44 1003.77 1004.64 1004.26 1004.33 1004.51 1004.96 1005.24 1005.52 1005.77 1006.00 1006.21 1006.70 1006.94 1007.00 1006.85 1006.94 1007.35 1007.48 1007.15 1007.13 1007.19 1007.48 1007.28 1006.87 1007.74 1007.91 1007.90 1006.80 1007.05 1007.88 1008.16 1008.39 1009.21 1009.21
Wind_Speed
8 7 3 3 4 2 6 10 11 17 2 8 3 7 13 6 7 5 7 17 23 17 13 16 20 19 19 18 17 16 16 16 16 15 14 14 14 15 15 15 15 14 14 13 12 11 11 11 9
5 6 2 3 3 2 8 17 21 8 6 6 5 8 18 12 15 14 11 19 21 17 13 13 20 20 19 18 17 16 16 16 16 15 14 13 14 14 14 13 13 13 13 12 12 11 11 9 8
4 5 1 5 4 8 7 15 8 9 7 7 4 6 8 15 10 4 20 21 20 16 12 13 20 20 19 17 16 16 16 16 16 15 14 13 13 13 13 13 13 12 12 12 11 11 9 8 7
3 3 4 1 10 9 18 17 18 15 4 6 3 4 7 7 10 16 24 23 19 16 13 15 18 20 20 18 17 16 16 16 16 16 15 14 13 13 12 12 11 11 11 11 10 9 8 7 6
3 2 3 5 12 10 19 16 12 14 8 5 3 5 6 9 18 27 24 21 20 16 13 14 17 20 21 19 18 17 17 16 17 16 16 15 15 13 13 13 12 11 11 11 11 9 8 7 7
3 3 0 10 12 11 15 18 13 12 9 3 5 3 4 11 15 16 20 20 20 17 15 14 16 19 22 21 19 18 18 18 18 18 18 16 15 15 14 13 12 11 10 10 10 9 8 7 7
5 2 6 9 12 11 14 16 9 9 7 4 6 4 3 8 13 9 16 19 18 18 15 13 12 15 20 22 21 18 17 17 17 17 17 16 15 14 13 13 12 11 11 10 10 9 9 8 8
2 2 5 6 11 14 14 8 6 8 15 2 4 5 3 4 14 10 10 19 18 15 15 14 11 10 9 11 21 21 19 19 17 17 17 16 15 15 13 12 11 11 11 11 11 10 10 9 9
4 3 5 6 8 11 12 11 7 10 5 5 4 4 9 10 10 9 6 17 15 13 14 13 12 10 9 8 10 17 20 18 15 14 14 11 5 7 9 9 11 11 11 11 10 10 9 8 8
8 10 11 8 9 11 14 7 8 7 11 3 4 6 8 8 4 6 9 13 17 16 14 15 12 10 9 9 8 7 9 7 7 6 7 4 5 5 8 9 12 12 11 10 10 10 10 8 5
6 16 10 12 20 16 14 6 6 7 7 5 4 4 6 2 7 8 7 11 17 21 15 16 15 11 8 7 6 5 4 4 6 9 7 4 4 5 4 3 4 4 8 3 5 5 4 6 5
13 16 16 16 16 12 10 6 3 4 7 8 8 6 7 7 2 9 9 8 7 22 21 20 19 17 10 4 7 6 5 4 4 4 9 6 3 4 4 3 4 4 4 6 5 4 6 7 7
20 15 15 16 15 12 8 7 7 6 8 9 8 9 9 9 7 7 10 7 7 5 7 21 18 15 16 10 8 8 6 6 6 6 6 5 5 5 5 5 6 6 5 6 5 6 6 7 7
7 18 18 12 12 10 8 7 5 7 6 9 8 9 10 11 8 7 9 8 3 8 9 11 11 8 7 7 11 8 6 9 7 7 8 9 6 5 5 6 6 6 5 6 6 7 7 7 6
15 18 13 20 9 8 5 14 15 7 8 10 11 12 12 11 9 9 9 9 7 7 15 18 14 12 15 14 10 7 8 8 7 7 8 10 8 7 5 5 5 5 6 7 5 5 4 4 4
12 11 14 9 8 8 7 23 15 10 13 14 16 13 12 13 15 10 10 9 9 7 16 16 19 19 11 9 8 8 7 5 3 1 8 13 8 3 7 5 5 5 5 4 4 5 3 4 4
10 12 9 10 8 6 14 20 14 13 14 9 17 14 12 11 12 12 11 10 10 3 17 19 19 16 12 9 5 5 10 8 7 6 6 9 8 6 6 6 5 7 5 4 2 3 2 3 4
7 7 9 12 16 21 20 21 12 11 8 9 8 9 11 13 14 15 15 12 9 7 13 18 15 14 9 7 6 6 7 6 7 5 6 8 6 6 5 4 4 5 5 7 5 14 8 8 5
11 15 14 16 21 17 19 19 12 11 9 10 9 9 10 11 14 13 15 16 8 6 13 19 15 9 9 6 4 5 2 1 4 4 8 9 7 4 4 2 2 2 4 5 3 1 2 9 6
18 20 20 16 15 11 7 6 8 12 9 9 9 8 8 7 9 9 12 11 7 8 16 14 14 13 11 8 6 7 10 5 4 7 10 10 12 9 5 5 1 4 3 7 7 8 5 6 5
22 21 15 14 17 4 7 4 7 5 7 8 7 7 2 2 10 9 10 11 11 14 15 18 20 17 13 12 8 6 4 3 6 9 10 13 17 17 15 16 15 18 13 10 14 14 10 5 4
20 21 19 20 15 5 7 5 5 6 11 7 8 7 6 9 9 4 8 8 14 14 14 15 21 22 20 21 17 21 14 12 5 10 3 8 11 14 14 15 12 9 3 5 5 4 4 7 6
17 16 17 19 8 3 10 4 5 7 11 14 9 8 9 9 11 11 12 11 9 9 15 10 7 6 13 14 14 13 13 12 4 6 6 4 5 9 13 10 8 5 4 1 4 6 5 4 4
19 16 16 9 3 5 7 5 6 6 8 10 8 10 10 11 11 12 9 8 5 2 8 16 13 9 8 7 10 14 13 8 7 8 7 6 6 9 10 7 5 4 5 2 3 11 12 7 8
16 8 4 3 8 8 9 6 9 11 7 9 15 10 10 10 11 10 10 9 9 12 2 6 12 13 11 7 6 3 1 3 1 2 6 8 7 7 10 11 7 5 5 6 9 7 15 13 10
10 7 5 6 4 4 7 15 13 19 3 14 16 12 13 11 10 10 9 9 10 12 11 6 5 6 10 11 11 6 7 5 4 7 5 7 8 9 10 10 11 14 9 9 12 12 17 15 7
7 10 7 2 6 5 5 7 5 16 12 15 15 15 12 11 10 10 10 8 8 9 9 8 8 4 4 10 12 10 6 8 9 9 7 5 2 6 6 5 3 7 7 15 15 10 11 6 6
8 6 11 3 1 6 6 3 7 13 12 8 14 11 10 10 11 10 8 8 8 12 14 14 10 8 9 10 6 3 4 4 5 6 7 7 4 3 7 14 0 19 15 10 8 4 4 3 1
10 15 7 6 8 6 1 2 5 9 6 8 10 9 10 13 9 9 9 9 10 10 12 11 12 14 13 12 13 12 9 7 6 4 3 4 3 1 3 6 13 11 7 5 6 5 2 4 5
14 6 7 6 3 2 6 3 3 9 11 9 8 13 15 11 16 8 8 10 12 11 11 10 9 11 8 8 8 8 8 7 7 7 9 7 7 7 12 9 8 7 6 5 6 7 6 7 8
Wind_Direction
298 287 255 323 33 111 262 263 253 288 358 122 52 63 82 55 124 180 96 131 132 136 150 147 142 143 142 141 142 141 139 135 132 130 129 126 123 121 119 118 118 117 117 116 114 110 104 103 99
314 316 230 270 132 281 267 248 258 286 154 112 101 73 82 76 86 107 96 132 136 136 147 150 146 145 145 144 145 144 142 139 137 136 136 133 130 126 123 121 120 121 122 122 120 117 116 115 112
287 245 87 160 194 215 247 257 295 332 68 45 45 70 97 123 101 92 126 133 131 138 140 151 149 147 148 147 148 150 149 147 143 142 141 138 135 134 133 130 129 130 132 132 130 127 124 124 118
283 329 313 152 243 244 241 271 273 290 76 84 17 57 78 128 121 131 136 136 135 143 139 150 153 149 149 151 153 154 154 150 147 148 148 147 145 141 139 135 134 136 138 137 134 130 132 133 130
249 271 230 227 248 263 270 271 290 312 315 77 59 31 85 88 121 130 138 140 139 144 144 149 158 152 151 154 158 160 160 157 155 154 155 154 152 151 148 145 146 147 147 147 147 144 149 154 160
300 156 292 232 260 262 261 266 271 274 285 81 79 54 129 129 124 134 141 143 147 138 146 155 162 160 157 157 160 166 165 163 162 161 161 160 159 160 157 153 154 152 152 154 157 157 164 179 185
211 321 228 253 265 273 255 262 264 250 248 230 129 106 59 98 134 142 145 142 134 141 144 156 167 173 165 161 160 166 167 168 167 164 163 162 163 163 163 161 160 158 158 163 167 168 179 192 201
184 151 267 262 256 265 268 282 280 271 246 278 92 117 95 154 135 135 129 124 138 144 149 156 162 167 168 169 166 164 172 171 170 167 163 164 167 167 169 165 167 168 169 173 177 181 190 202 214
247 212 231 237 248 267 300 351 341 311 76 56 73 57 134 126 132 135 134 136 144 152 155 159 159 160 163 169 181 174 171 170 168 166 164 156 157 166 174 175 179 178 180 182 184 190 197 209 227
186 210 226 244 256 272 284 317 334 17 340 72 65 13 107 124 143 156 157 159 162 162 164 160 159 163 164 170 171 174 173 159 155 154 159 156 161 168 181 190 191 188 189 194 194 195 202 208 208
248 234 248 228 239 252 268 313 333 2 337 336 4 349 341 110 178 191 213 187 169 171 165 168 160 157 161 169 152 171 163 160 161 159 157 175 189 185 189 193 193 178 198 201 202 209 212 209 212
253 239 239 257 270 273 273 284 278 278 261 290 322 325 333 335 37 290 209 213 207 166 169 170 165 156 163 131 160 171 164 160 160 183 166 171 191 194 198 167 167 177 190 203 210 210 219 227 230
241 247 241 239 248 258 268 265 252 249 275 300 311 320 306 299 297 302 248 228 214 102 182 170 158 165 166 151 166 171 165 173 166 165 172 175 191 190 187 177 177 199 199 206 211 209 215 228 240
250 236 250 245 239 255 268 256 245 263 256 265 262 261 267 281 264 289 296 256 143 126 113 110 142 139 166 138 160 174 174 172 171 174 176 178 197 209 192 175 192 193 198 210 211 209 210 221 218
242 258 250 237 235 251 285 279 252 226 242 243 238 228 235 246 272 253 267 276 238 135 140 133 137 158 171 192 157 167 192 176 167 179 181 191 198 210 190 193 199 190 201 210 223 234 225 214 215
248 248 248 253 212 221 180 260 259 235 236 237 234 224 213 225 242 240 245 257 283 122 147 158 160 178 173 200 134 169 187 160 108 107 186 193 195 250 187 189 210 221 201 198 203 188 203 191 210
242 242 254 254 241 226 209 250 244 243 248 245 233 232 220 216 223 236 239 230 239 182 149 161 169 168 170 123 114 111 74 74 53 71 68 66 61 42 44 9 21 36 9 339 300 205 173 229 254
234 230 243 248 233 233 238 236 233 241 240 246 231 230 205 207 214 217 229 236 197 212 158 162 164 160 102 97 79 69 71 73 89 80 90 103 87 85 93 70 29 45 43 18 29 355 360 341 337
258 244 234 231 239 234 231 229 198 222 242 262 244 238 215 205 217 211 214 228 195 157 150 161 154 138 119 143 127 156 120 304 106 146 136 114 105 89 99 107 352 73 95 146 180 0 282 292 247
244 250 257 278 268 205 179 205 200 210 219 218 231 245 223 232 233 213 207 211 163 146 143 142 148 144 156 171 171 180 164 145 210 182 144 155 145 168 151 156 141 298 195 188 187 187 196 218 235
231 243 254 253 281 231 141 231 211 252 245 240 239 198 210 306 232 214 197 204 116 125 141 137 149 157 155 151 138 116 74 70 175 176 183 181 170 172 183 175 199 195 190 191 197 194 190 192 234
229 228 247 259 269 227 143 240 245 245 250 232 224 191 119 63 22 147 146 133 150 152 147 144 152 156 159 165 168 170 169 190 230 191 199 162 174 165 188 202 207 217 206 221 223 207 176 182 226
242 243 234 246 265 289 281 101 253 231 240 228 215 155 114 91 76 76 80 80 122 136 144 160 143 165 160 173 170 168 187 206 163 196 170 171 175 196 209 202 204 172 121 235 215 215 224 212 235
243 241 245 223 215 282 238 148 273 245 257 169 166 135 116 103 93 78 65 57 34 145 149 146 147 156 173 194 182 193 202 190 176 182 182 182 191 206 213 229 231 187 157 169 31 345 290 257 235
230 215 226 190 206 229 197 256 226 257 267 175 133 124 99 96 93 81 70 52 40 39 105 154 151 164 172 185 208 242 43 265 240 199 199 193 201 213 216 195 208 214 151 152 150 208 285 272 236
218 171 166 186 192 223 243 224 232 249 87 109 119 119 96 85 88 87 69 65 60 53 39 35 191 167 174 186 212 212 201 201 216 214 214 229 205 214 219 214 200 193 165 198 202 214 203 227 192
218 233 210 117 95 4 241 291 271 233 127 119 117 106 107 100 90 93 87 91 77 63 50 83 53 16 169 208 207 214 225 217 220 227 208 194 110 52 357 263 246 342 206 186 205 231 226 196 165
214 179 221 118 63 181 265 358 31 12 20 131 113 114 109 107 94 92 87 94 79 75 62 44 38 52 47 52 51 55 32 19 52 54 60 82 120 139 103 76 96 216 237 204 177 209 163 147 104
186 212 191 162 174 196 204 127 318 340 0 47 70 62 69 25 118 121 114 103 100 75 73 62 54 60 57 56 47 40 23 29 46 52 41 44 127 341 109 167 212 235 226 174 147 166 150 163 216
302 185 160 122 226 153 149 223 331 27 14 59 44 65 46 31 356 91 98 96 95 88 73 65 49 64 64 65 60 56 51 35 50 61 57 43 56 26 35 348 219 209 170 156 189 194 192 212 211